Wind_Speed
21 21 21 21 21 20 20 19 20 21 22 24 25 27 26 26 26 22 19 18 17 17 17 16 15 15 14 14 15 15 15 16 16 16 16 17 17 16 16 15 14 14 12 11 10 10 9 8 8 7 7 5 3 3 3 4 4 5 6 7 8 9 8 7 6 7 7 6 6 5 4 4 3 2 2 5 6 5 5 5 4 4 4 4 4
21 21 21 22 21 21 20 21 21 22 23 24 26 27 27 27 26 21 19 18 17 17 17 16 15 15 15 15 15 15 15 16 16 16 16 16 16 16 16 15 14 14 13 11 10 10 9 8 7 7 6 5 3 3 3 4 5 5 6 8 8 9 8 8 7 7 7 6 6 5 4 4 3 2 2 4 6 6 5 5 5 5 4 4 4
22 22 22 22 21 21 21 22 22 23 24 26 28 28 27 26 24 21 20 18 18 18 17 16 16 15 15 15 15 16 15 16 16 16 16 16 15 16 15 15 14 13 12 11 10 10 9 7 7 6 6 5 3 3 4 4 5 6 7 7 8 9 9 8 7 7 7 6 6 5 4 3 3 2 2 4 6 6 6 5 5 5 5 5 4
23 23 23 22 22 22 23 23 24 26 27 28 29 29 28 24 23 22 20 19 19 18 17 16 16 15 15 15 15 16 15 15 16 16 16 16 15 15 15 14 13 12 11 10 10 9 8 7 7 6 6 5 3 4 4 4 6 6 7 7 8 9 9 8 7 7 6 6 6 5 4 3 3 2 2 4 6 7 6 6 6 6 5 5 5
24 24 24 23 23 24 25 26 27 27 28 29 29 29 28 24 23 22 20 19 19 19 18 16 16 16 15 15 15 15 15 15 16 16 16 16 15 15 15 14 13 12 10 9 9 9 8 8 7 7 6 5 4 4 4 5 6 7 7 7 9 9 9 9 8 7 6 6 6 5 4 3 3 2 2 4 6 7 7 6 7 7 6 6 5
25 26 25 25 25 26 27 28 28 28 29 29 30 30 28 26 24 22 20 20 21 20 19 18 17 17 16 16 15 15 15 15 16 16 16 16 15 15 15 15 14 12 10 9 9 9 8 8 8 7 6 6 4 4 4 5 6 7 7 7 9 9 9 9 8 7 6 6 6 5 5 4 3 2 2 3 5 7 7 7 7 7 7 6 6
26 26 26 27 27 27 28 29 29 29 29 30 30 30 29 27 25 21 20 22 23 22 21 20 19 18 17 16 16 15 15 15 16 16 16 16 16 15 15 15 14 13 11 10 10 9 9 9 9 8 7 6 5 5 5 6 7 7 7 7 8 10 10 9 8 8 7 6 6 5 5 4 3 2 2 3 5 7 7 7 7 7 7 7 6
26 26 27 28 28 28 29 29 30 30 30 30 30 30 29 26 23 20 21 24 25 25 23 22 20 19 18 17 16 16 16 16 16 17 17 17 16 16 15 15 14 13 12 11 10 10 10 10 9 8 7 7 6 6 6 7 7 7 7 7 8 10 10 9 9 8 7 7 6 5 5 4 3 3 2 3 5 7 7 7 7 7 7 7 7
27 27 28 28 29 29 29 30 30 30 30 30 29 29 28 24 20 20 23 25 26 26 24 22 21 19 18 17 17 17 16 16 16 17 17 17 16 16 15 15 15 14 13 12 11 10 11 11 10 9 8 7 7 7 8 7 8 8 7 7 8 9 10 9 9 8 8 7 6 6 5 4 4 3 2 3 5 7 8 7 7 7 7 7 7
28 28 29 29 30 30 30 31 31 31 30 30 28 27 26 23 21 22 26 26 26 26 24 22 21 20 18 18 18 17 16 16 17 17 18 17 16 16 16 15 15 13 13 12 12 11 12 12 10 10 9 8 8 8 8 9 9 9 8 7 8 9 10 10 9 8 8 8 7 7 6 5 5 4 3 3 4 6 7 8 8 7 7 7 6
29 29 29 30 30 31 32 32 32 32 31 31 29 27 26 24 24 25 29 28 26 26 24 22 21 19 18 18 18 17 17 17 17 18 18 17 16 16 16 15 14 13 13 12 12 12 12 12 11 11 10 10 9 9 9 10 11 11 9 8 9 9 10 11 10 9 8 8 8 7 7 6 6 5 3 3 3 5 7 8 8 8 7 7 6
30 30 30 30 31 32 33 33 33 33 33 33 32 29 27 26 26 29 31 31 28 26 23 22 20 19 19 19 18 17 17 17 18 18 18 17 16 16 16 15 14 13 13 13 13 13 13 13 12 12 11 11 10 10 10 11 12 12 10 8 9 10 10 11 11 10 9 9 9 8 8 7 6 5 4 3 3 4 6 7 9 9 8 7 6
30 30 31 32 33 33 34 34 33 33 34 34 32 30 29 28 27 30 33 34 30 26 23 21 20 20 20 19 18 17 17 17 17 18 18 17 17 16 15 15 14 13 13 13 13 13 13 14 13 13 12 12 11 11 11 12 14 14 11 10 10 10 11 11 11 11 10 9 9 9 8 8 7 6 5 3 3 3 4 6 8 8 8 8 7
30 31 32 33 33 33 33 34 33 31 30 30 29 27 26 27 27 29 35 36 31 25 22 21 20 21 21 19 18 18 18 17 17 18 19 18 17 17 15 15 15 14 13 14 14 14 14 14 14 14 13 13 12 13 13 13 15 15 13 11 11 11 12 12 11 11 11 10 10 10 9 8 7 6 5 4 3 3 3 4 6 8 8 8 7
31 31 32 33 33 33 34 34 33 29 28 29 29 27 25 24 24 26 33 36 29 24 23 22 21 22 21 19 18 18 17 17 18 18 19 18 17 17 16 15 15 15 15 15 15 15 15 15 15 15 14 14 14 14 14 14 16 17 15 13 12 12 12 12 12 12 12 11 11 11 10 9 8 7 6 5 4 3 3 3 5 6 7 8 8
32 33 33 33 33 33 33 32 32 29 27 27 28 28 26 24 25 26 30 33 30 27 25 22 21 21 19 18 18 18 17 17 18 19 19 19 18 16 16 16 16 16 16 16 16 16 16 15 15 16 16 15 15 15 15 16 17 18 17 15 14 14 14 13 13 13 12 12 12 12 11 11 9 8 7 6 5 4 3 3 4 5 6 7 8
34 34 34 33 33 33 33 31 30 27 24 24 25 26 26 25 26 28 31 33 32 28 22 20 20 19 18 18 17 17 17 18 18 19 20 20 19 17 16 16 16 17 17 17 17 16 16 16 16 17 17 16 16 16 16 17 17 19 19 17 16 16 15 15 14 14 13 13 13 13 12 12 11 9 8 7 7 6 4 4 3 4 6 7 7
35 35 35 34 33 32 31 28 26 24 22 23 24 23 24 25 27 31 33 31 28 22 19 19 19 18 17 17 16 16 17 18 19 20 21 20 20 18 17 17 17 17 17 18 18 17 17 16 17 17 18 18 17 17 17 17 18 19 20 19 18 17 17 17 16 15 15 14 14 13 13 13 12 11 10 9 8 7 6 5 4 4 5 6 7
36 37 34 32 30 26 23 22 22 22 21 21 23 22 23 25 26 29 28 24 21 18 18 18 18 17 17 16 15 16 18 19 20 21 21 21 21 20 18 18 17 18 18 18 18 18 18 17 17 18 19 19 18 18 18 18 19 20 21 20 19 19 19 18 18 16 16 16 15 15 14 14 14 12 11 10 9 9 8 7 5 4 5 6 7
36 34 31 28 25 20 19 21 21 21 19 19 20 20 20 21 21 22 21 19 18 16 16 17 17 17 16 16 16 17 19 20 21 22 22 22 22 21 20 19 18 18 18 19 19 19 19 18 17 18 19 19 19 19 19 20 20 21 22 22 21 20 20 20 19 18 17 17 17 17 15 15 15 14 13 12 11 10 10 9 7 6 5 5 6
31 28 27 26 23 22 22 22 21 20 18 17 15 15 17 19 19 20 20 18 16 16 17 17 17 17 17 17 18 19 20 21 21 22 23 23 23 22 20 19 19 19 19 20 20 20 20 19 18 18 18 19 19 19 20 20 21 22 23 23 22 22 22 22 21 20 19 18 18 18 18 16 15 15 15 14 13 12 11 10 9 8 7 6 6
30 27 27 25 23 24 21 17 20 20 18 16 14 14 17 19 21 21 21 20 19 19 19 19 19 19 18 19 20 21 21 21 22 22 23 23 22 22 21 20 19 19 20 20 21 21 21 20 19 18 18 18 19 19 19 20 22 23 24 24 24 23 23 23 22 21 21 20 20 20 20 19 17 16 16 16 15 14 12 12 11 10 9 8 7
31 29 29 28 25 23 19 14 17 18 16 14 13 14 16 19 20 20 21 23 22 21 20 21 21 20 20 21 21 21 21 22 22 22 23 23 22 22 21 20 19 19 20 20 21 22 22 21 20 19 18 18 18 19 20 21 22 23 24 25 25 25 24 24 24 23 22 22 22 22 22 21 20 18 17 17 17 16 15 13 13 12 11 10 9
29 28 27 26 23 18 15 14 14 14 13 13 14 15 17 19 20 21 22 24 24 23 22 22 21 21 21 21 21 21 21 22 22 22 22 22 22 22 21 20 19 19 20 21 21 22 22 21 20 19 18 17 18 18 19 20 22 23 25 26 26 26 26 26 25 24 24 23 23 23 23 23 22 21 19 18 18 17 17 15 14 14 13 12 11
23 23 21 19 19 14 10 15 15 11 12 13 15 17 19 20 21 22 23 24 24 24 23 22 22 22 22 21 21 21 21 21 21 21 21 22 21 21 20 19 19 19 20 20 21 22 22 21 20 19 18 17 17 18 19 19 21 22 24 25 26 27 27 27 27 26 25 25 25 24 25 24 24 23 21 19 18 18 18 18 17 16 15 14 13
15 18 18 13 16 13 7 14 15 11 11 13 16 18 20 21 22 23 24 25 25 25 23 22 23 23 22 21 21 21 21 21 20 20 21 21 21 20 19 19 20 20 20 20 20 21 21 21 21 20 19 18 17 17 18 18 19 20 22 23 24 25 26 27 27 27 26 26 25 25 25 26 26 25 24 22 20 19 19 19 19 18 17 16 15
14 18 18 11 12 11 7 13 14 15 16 15 17 19 21 22 23 25 26 27 26 24 22 22 23 22 22 21 21 20 20 20 20 20 20 21 20 20 19 20 20 20 19 19 19 20 21 21 21 21 19 18 17 17 17 17 18 19 20 22 23 24 25 26 27 27 28 27 26 25 25 26 27 26 25 24 22 20 19 19 20 19 19 18 17
17 20 20 12 9 7 6 11 16 20 20 17 17 20 23 23 24 26 27 27 24 22 22 22 22 22 22 21 21 20 19 20 20 20 20 19 19 19 19 19 19 19 18 18 19 20 21 21 21 21 20 18 17 16 16 17 17 17 18 20 22 24 25 26 27 27 28 29 27 25 25 26 27 27 26 26 24 22 21 20 20 20 20 20 19
14 17 17 10 8 6 8 11 14 17 17 17 19 22 25 24 24 26 26 25 23 22 22 21 21 21 22 21 20 19 19 19 19 20 20 18 17 18 17 17 18 18 18 18 19 19 20 20 20 20 19 18 17 16 16 17 17 17 18 19 21 22 24 25 27 27 27 28 28 25 24 24 25 27 27 27 26 24 23 22 21 21 20 20 20
11 13 12 10 11 10 9 11 12 14 16 17 19 22 24 24 24 24 24 23 22 21 20 20 21 21 21 20 19 18 19 19 18 19 19 18 17 17 17 17 18 18 17 17 18 19 19 19 18 17 17 17 17 16 16 16 16 17 18 19 20 21 22 23 26 27 25 23 25 24 23 22 23 25 27 28 27 26 25 24 23 22 21 21 21
8 9 11 13 13 11 9 9 10 13 15 17 19 21 22 23 22 20 20 20 20 20 20 20 20 20 19 19 18 18 18 18 17 18 18 18 17 16 17 17 17 17 17 17 17 18 17 17 17 16 17 17 17 16 16 16 16 16 17 18 19 20 20 21 23 25 25 21 20 22 22 22 23 24 26 27 28 28 27 25 24 23 22 22 21
7 8 10 11 12 11 10 9 9 11 13 16 18 21 21 20 18 17 17 18 19 19 19 19 19 19 18 17 17 17 17 16 16 18 17 16 16 15 15 16 17 17 17 16 16 17 17 17 16 16 17 17 16 15 15 15 14 15 15 17 18 19 20 20 21 22 23 22 21 21 22 23 23 24 25 27 28 29 28 27 26 25 24 23 22
8 8 9 8 9 10 9 9 9 9 11 15 19 20 19 17 16 16 17 18 18 17 17 17 17 17 17 17 17 16 16 15 16 17 16 15 14 13 13 14 15 16 16 15 15 16 16 16 16 16 16 16 15 15 15 14 13 13 14 15 16 18 19 20 21 21 22 23 23 23 22 22 23 25 25 26 28 29 29 28 27 27 26 25 24
8 8 8 8 9 9 10 9 9 10 11 15 17 18 16 15 16 17 17 16 16 15 15 15 15 16 17 17 16 16 15 14 15 16 14 14 14 13 13 14 15 15 16 15 15 16 16 16 15 14 15 15 15 15 15 15 14 13 13 14 15 17 19 20 21 22 23 24 24 24 24 23 23 25 25 26 27 28 29 29 28 28 28 26 25
7 7 7 8 8 9 10 10 10 10 11 14 16 15 14 15 16 16 15 14 13 13 14 14 15 15 15 15 15 14 14 14 14 15 13 14 13 13 14 14 14 15 16 15 15 16 16 15 15 14 14 15 15 16 17 16 15 14 14 14 15 16 18 19 21 22 23 24 25 25 25 24 24 24 24 24 25 27 29 30 30 29 29 28 27
5 5 6 7 8 9 11 11 10 9 11 14 15 14 14 14 14 13 12 11 12 12 13 13 14 14 14 15 14 14 14 14 14 14 13 13 13 13 14 14 14 14 15 16 16 16 16 15 15 15 15 16 16 17 17 17 16 15 15 15 15 17 18 20 21 23 23 24 25 26 25 24 24 24 24 24 25 26 28 29 31 31 30 29 28
5 4 5 6 8 9 10 12 11 10 11 13 14 13 13 13 12 11 10 10 11 11 12 12 13 14 14 15 15 15 14 14 14 14 13 13 13 13 14 14 14 14 15 15 16 16 16 15 16 16 17 17 17 18 17 17 17 16 16 15 16 17 18 20 21 21 21 22 24 25 25 24 24 24 25 25 26 27 27 29 30 32 32 31 30
5 5 5 6 8 9 9 10 11 12 13 14 14 14 13 12 10 9 9 10 10 10 11 11 12 13 14 14 15 15 14 14 15 14 14 14 13 13 13 13 14 14 15 16 16 16 16 16 16 17 18 19 19 18 18 17 16 16 16 15 15 16 17 18 19 19 19 19 21 23 24 24 24 25 25 26 27 28 28 29 30 31 32 32 32
7 6 5 6 9 10 8 9 12 14 15 16 15 14 12 10 9 9 9 9 9 10 11 11 12 13 13 14 14 14 14 14 14 14 14 14 14 13 13 13 13 14 15 15 15 15 15 16 17 18 19 20 19 17 17 17 16 16 16 16 16 16 16 18 18 19 19 19 20 21 22 22 23 23 24 25 27 28 29 29 30 31 32 32 32
9 7 6 7 12 13 10 10 14 15 16 15 14 12 11 10 10 10 10 10 10 10 11 11 11 12 12 12 13 13 14 14 14 14 14 14 14 14 13 13 13 14 14 15 15 15 15 16 17 18 19 20 19 16 16 17 16 16 16 16 16 17 17 18 19 20 20 21 20 20 20 21 21 22 22 24 25 27 27 29 30 31 32 32 32
9 8 7 8 14 16 13 14 15 15 14 14 13 12 11 11 11 11 11 11 11 11 11 11 11 11 11 11 12 13 13 14 14 14 14 14 14 15 15 15 14 14 15 15 15 15 15 16 16 17 19 20 19 16 16 17 16 16 16 16 16 17 17 18 18 19 19 20 20 21 21 21 21 21 21 23 25 26 27 28 28 29 29 30 31
8 7 7 10 16 16 15 16 15 14 14 13 13 12 12 12 12 11 11 12 12 12 11 10 10 10 10 11 12 12 13 13 14 14 14 14 14 15 15 16 16 15 15 16 16 16 16 17 17 18 19 21 20 18 17 18 18 17 17 17 17 17 18 18 18 19 19 19 20 21 22 22 22 21 22 23 24 25 27 28 28 29 28 28 29
8 8 8 10 16 16 15 15 15 15 14 14 14 14 14 13 12 12 11 11 12 11 11 11 10 10 10 11 12 12 12 13 13 14 15 15 15 15 15 16 16 16 16 17 17 18 18 19 19 20 21 22 22 21 20 20 20 19 19 18 18 18 18 18 19 19 19 20 20 21 22 22 22 22 22 23 23 23 23 24 27 29 28 27 26
10 10 10 12 17 18 18 18 17 16 16 16 17 17 16 14 13 13 12 11 11 10 10 10 10 10 10 10 11 11 11 12 12 13 14 15 15 15 16 16 16 17 17 17 18 19 20 20 21 21 22 23 23 23 22 22 22 22 21 20 19 19 19 19 19 19 20 20 20 21 21 22 22 22 22 23 24 24 22 20 21 24 26 27 25
13 14 15 16 18 20 21 23 23 21 20 20 20 18 16 15 14 12 12 11 11 11 10 11 11 11 11 11 10 10 10 11 11 13 14 15 16 16 16 16 17 17 18 18 18 19 20 21 21 22 22 23 24 24 23 22 22 22 22 21 21 20 20 19 20 20 20 21 21 21 22 22 22 22 23 23 23 24 22 19 18 19 20 23 25
18 18 18 17 17 17 19 23 25 22 21 22 20 18 17 16 14 13 12 12 11 11 11 12 12 12 11 11 11 11 11 11 11 12 14 15 16 16 17 17 18 18 19 19 19 20 20 20 21 21 22 22 23 23 23 22 22 22 21 21 20 20 20 20 20 21 21 21 22 21 22 22 23 23 23 23 23 23 22 20 19 19 19 19 21
21 20 19 17 17 18 18 22 23 17 15 19 19 18 18 15 13 13 13 13 12 12 12 12 12 12 13 13 14 14 14 13 12 12 13 15 16 16 17 17 18 19 19 20 21 21 21 21 21 21 22 22 22 22 22 21 21 21 20 20 20 20 20 20 21 21 20 21 22 22 22 22 23 24 24 23 23 23 22 21 20 20 20 20 20
21 19 18 17 18 20 18 19 23 19 16 19 21 19 17 14 13 14 15 15 15 13 12 13 13 14 15 16 16 17 17 16 14 13 13 14 16 17 17 17 18 19 20 21 22 22 22 22 22 22 22 21 21 21 20 20 20 19 19 19 18 19 19 20 20 19 19 20 22 23 23 23 24 24 23 22 22 22 22 22 21 20 21 21 22
18 17 17 17 19 20 17 16 23 28 24 18 19 19 15 13 13 13 15 16 15 14 13 13 15 16 17 18 17 17 18 18 16 14 13 14 16 17 17 17 17 18 19 21 22 22 23 23 23 23 22 22 21 21 20 19 19 18 18 18 17 18 18 19 19 19 19 19 20 21 22 22 23 23 23 22 22 22 22 22 21 21 22 22 22
15 15 17 20 20 20 18 18 23 30 31 21 16 18 16 14 13 12 13 15 14 14 14 14 16 17 17 17 16 15 17 17 16 15 14 14 16 17 17 17 17 17 18 20 21 22 23 23 23 23 23 22 21 21 20 19 18 17 17 17 16 17 17 17 17 18 18 18 19 20 21 21 22 22 23 23 24 23 23 23 23 23 23 22 22
17 18 20 22 22 20 20 22 24 26 31 28 20 16 16 14 12 12 12 13 14 14 14 15 17 16 14 15 15 14 16 15 15 15 14 14 15 16 17 17 16 17 17 18 20 21 22 22 23 23 22 22 21 20 19 18 18 16 16 15 15 15 16 16 16 17 17 18 18 20 20 21 21 21 21 22 23 23 24 24 24 24 24 24 24
Wind_Direction
274 276 278 279 281 282 283 284 287 289 292 295 299 302 308 314 314 314 317 313 307 304 302 302 300 299 299 300 302 305 311 316 320 323 325 326 326 326 326 324 321 319 320 324 329 329 329 330 329 326 324 324 318 301 298 296 295 303 304 303 310 315 312 305 292 276 267 264 262 261 265 271 279 264 195 182 181 179 184 188 190 188 177 156 133
268 271 274 276 276 277 279 281 284 287 290 293 296 301 308 314 312 310 314 311 302 299 298 298 296 295 296 297 299 303 310 316 319 321 323 325 324 323 323 321 318 316 317 322 325 324 326 326 323 321 315 310 302 285 286 288 292 299 301 301 305 311 310 307 300 285 271 265 263 263 267 272 281 269 209 188 182 180 184 187 190 188 179 165 145
262 266 269 272 274 276 278 280 283 285 288 292 296 302 309 313 311 309 310 306 298 294 294 293 292 291 292 295 298 303 309 315 318 320 320 321 321 320 318 316 313 312 314 318 319 318 320 321 319 315 303 293 284 273 278 284 290 296 298 297 301 306 309 309 306 293 277 266 264 264 269 273 277 268 222 196 187 183 184 186 189 188 181 171 157
258 262 266 270 273 276 277 278 280 284 288 293 298 304 309 309 308 310 307 300 294 288 289 289 286 287 288 291 296 302 307 313 316 317 317 317 317 315 312 310 308 307 310 313 311 311 312 313 313 306 291 278 268 264 273 282 287 293 295 294 297 303 308 310 309 298 283 268 262 263 268 274 276 268 233 204 192 188 185 185 187 186 181 176 166
256 259 264 269 272 275 276 278 280 285 289 294 298 304 309 309 305 306 301 293 288 284 283 283 281 281 283 287 292 299 304 309 313 314 313 313 313 309 306 305 303 304 308 309 304 302 304 305 303 295 281 266 255 256 271 279 284 291 291 290 295 301 306 309 308 299 285 270 261 260 264 270 274 271 242 211 198 194 191 189 188 184 181 177 170
256 258 262 267 270 274 277 279 281 286 289 293 299 304 307 307 304 301 294 287 281 278 279 278 277 277 279 283 288 294 300 306 310 310 310 311 309 304 302 302 301 304 307 304 298 297 300 299 294 285 273 259 246 247 263 273 279 287 287 287 294 298 303 307 308 300 288 273 261 257 260 264 266 263 242 218 205 199 197 195 192 187 181 178 173
255 257 261 265 269 273 277 280 282 285 288 293 298 303 305 304 301 296 286 281 276 273 275 275 273 273 275 279 285 290 296 302 305 306 306 306 305 301 300 301 302 304 305 299 296 296 295 291 285 277 266 257 242 237 251 265 271 282 286 286 292 295 300 305 306 302 293 276 261 256 257 260 261 254 236 218 208 203 202 200 196 192 185 181 176
256 258 261 265 269 273 276 279 282 285 288 293 298 303 304 300 296 289 276 271 270 269 271 272 271 271 273 278 283 288 293 298 301 303 303 302 301 300 299 301 304 305 303 298 297 295 289 284 278 271 263 254 241 234 244 256 264 276 283 284 288 292 297 301 303 302 295 281 264 254 251 254 254 250 235 216 210 204 203 204 200 196 191 185 179
258 260 261 265 269 272 275 278 281 285 289 294 299 302 302 295 289 278 263 257 259 263 266 267 268 269 272 276 280 285 290 294 297 299 299 299 299 299 301 302 304 305 301 298 296 291 284 280 274 267 259 251 240 234 241 251 260 269 277 281 284 289 294 297 299 300 295 285 270 256 248 247 248 248 236 216 212 206 202 204 204 201 196 189 183
260 261 263 266 269 272 276 278 281 285 289 293 296 298 296 287 279 271 258 249 249 255 259 263 264 265 269 273 276 281 287 291 294 296 296 297 299 301 302 302 302 302 299 295 293 287 281 277 270 263 255 245 239 236 240 249 257 263 271 278 281 285 290 292 295 296 294 289 278 263 250 244 246 246 238 222 216 212 204 201 205 205 201 195 189
262 263 265 268 272 276 278 281 284 286 288 290 290 293 291 280 272 269 259 248 244 248 255 258 258 260 265 269 273 278 284 288 291 293 295 297 301 303 301 300 300 299 296 292 290 284 278 275 268 259 251 243 238 236 239 247 255 259 265 274 280 282 285 288 290 292 293 290 282 272 257 245 243 244 241 231 221 218 211 203 203 205 204 200 194
264 266 269 274 277 280 282 284 287 288 288 287 285 284 284 277 271 269 260 248 241 244 251 252 251 256 261 265 270 276 281 285 289 292 296 299 301 300 297 298 298 296 292 289 285 280 276 273 267 257 249 241 236 234 238 245 253 256 259 267 274 277 280 284 287 289 290 289 284 276 266 252 242 242 240 235 229 220 217 210 205 203 203 202 197
269 272 276 280 282 283 285 287 289 291 290 286 282 279 278 277 273 269 259 245 238 241 245 244 247 254 258 262 267 272 278 283 289 294 297 298 299 296 295 297 296 292 287 283 279 276 273 269 265 258 249 241 233 230 233 242 251 254 254 258 266 271 276 280 284 286 287 287 285 279 272 261 248 242 241 238 238 227 220 217 211 205 202 201 198
275 279 282 283 283 285 286 288 290 292 291 285 282 281 279 276 271 268 257 242 236 237 238 241 246 252 255 258 263 270 276 284 291 295 296 297 298 296 296 297 294 288 282 277 273 271 268 265 262 257 250 239 230 226 228 237 247 252 251 251 258 265 271 276 280 283 284 285 285 282 276 268 257 246 241 240 239 229 221 221 217 211 205 201 197
279 282 284 284 285 286 287 288 289 289 287 284 283 281 278 274 270 269 260 247 240 237 237 242 246 249 253 256 262 271 279 288 292 294 296 297 297 296 295 294 290 285 279 273 268 265 264 261 258 255 249 239 229 224 225 232 242 249 250 249 251 257 264 270 274 278 281 283 283 283 279 272 263 250 241 238 237 228 215 217 219 217 212 206 199
280 283 285 286 287 286 285 285 286 286 285 285 282 276 273 274 270 266 263 255 246 237 235 240 243 248 251 256 264 274 283 289 293 296 296 296 296 295 292 288 284 280 276 271 265 261 260 259 256 252 248 240 230 223 223 228 237 245 249 248 249 252 258 263 267 271 275 279 281 281 280 276 269 258 244 237 237 231 215 206 212 215 214 212 207
282 285 287 289 287 284 281 278 278 281 281 277 274 272 270 272 268 262 261 254 241 232 233 237 243 248 252 258 266 276 285 289 292 294 294 294 293 291 287 282 279 276 274 270 265 259 256 255 253 249 246 241 233 226 222 226 233 241 246 247 248 250 254 258 262 265 269 272 275 277 278 277 274 266 254 242 238 236 227 210 206 210 210 210 211
288 291 292 292 289 283 278 274 272 274 272 268 268 268 267 267 265 261 255 242 232 234 240 240 244 249 254 260 268 279 285 288 290 290 290 290 289 287 283 279 275 273 271 269 265 260 253 250 249 247 243 239 235 229 225 225 231 238 243 245 246 250 253 255 258 260 264 267 269 271 274 276 276 272 263 251 243 240 237 225 213 208 205 206 207
294 295 297 297 293 283 279 279 276 273 267 262 264 263 260 262 262 256 245 234 236 244 244 243 246 250 257 264 271 278 282 285 287 287 287 286 285 283 280 276 273 270 268 267 265 260 253 248 246 244 241 237 234 232 229 228 231 237 242 244 244 247 251 252 254 256 259 263 266 266 268 272 274 273 269 261 251 244 243 237 228 217 208 205 205
296 297 298 298 293 282 284 287 278 269 260 254 256 254 249 253 254 247 240 241 246 244 241 246 251 256 262 269 275 279 281 283 284 284 284 284 283 281 278 275 273 270 268 266 264 259 254 248 244 243 241 237 234 231 231 230 233 237 242 244 244 244 247 249 251 252 254 258 262 265 264 265 269 271 270 267 260 251 247 245 239 230 219 211 208
295 298 298 295 287 278 283 285 271 258 248 241 239 238 238 243 247 247 252 255 249 240 241 248 255 262 267 271 276 279 280 282 282 283 283 283 282 280 279 276 273 270 267 265 262 259 255 250 246 243 241 239 235 232 230 231 233 237 241 245 246 245 246 247 248 249 251 253 257 261 263 261 262 265 268 268 265 258 252 249 246 240 232 224 216
291 295 297 294 283 274 275 277 266 249 236 234 233 240 247 248 249 253 259 259 249 243 245 251 257 262 266 270 274 275 277 278 279 281 281 281 281 280 278 275 271 268 265 263 261 258 256 252 248 244 241 239 238 235 232 232 234 237 240 244 246 247 247 247 248 248 248 249 251 255 259 260 258 259 262 264 265 263 258 253 250 248 242 236 228
289 291 292 288 280 272 267 264 251 231 219 228 235 249 255 250 249 253 256 253 247 245 248 252 254 258 264 268 270 272 274 276 277 278 280 280 279 278 276 274 272 268 264 261 260 259 256 253 249 246 242 240 239 237 235 233 234 237 240 242 245 247 247 247 247 247 247 247 247 249 253 256 257 256 257 259 261 262 261 258 254 252 249 245 240
292 293 286 279 274 268 261 244 221 212 221 232 235 243 247 245 245 247 248 248 247 247 250 251 254 260 265 267 268 271 273 274 276 277 277 276 275 275 275 275 272 267 262 259 260 260 258 256 253 250 246 242 240 239 237 235 235 237 240 243 244 245 246 246 246 246 245 245 245 246 247 250 254 255 254 254 257 258 259 259 257 254 253 250 248
296 295 275 263 259 256 245 221 208 225 247 244 243 244 242 240 240 241 242 244 247 247 249 252 259 264 265 268 270 271 272 272 274 275 275 274 274 275 275 273 269 264 260 258 259 260 261 260 258 255 251 246 243 241 240 238 237 238 239 242 244 246 246 246 246 245 244 244 244 244 245 247 250 252 253 252 252 254 255 256 257 256 254 253 252
291 279 256 235 244 254 235 212 215 241 255 253 255 251 245 240 237 239 241 242 245 245 248 257 264 267 268 269 269 268 270 271 274 275 276 276 276 275 274 271 267 262 258 256 256 258 259 260 258 256 252 248 245 243 241 240 240 240 239 240 242 244 245 247 246 245 245 245 244 244 244 246 246 248 250 251 251 251 252 253 254 255 255 254 254
269 255 246 230 246 266 246 223 234 255 264 260 253 252 249 242 237 237 240 241 241 244 253 263 265 265 265 265 264 265 269 273 276 277 276 277 277 276 274 272 268 263 259 257 255 255 257 257 256 254 251 247 244 243 241 241 240 240 240 239 240 241 242 245 246 246 245 245 244 244 244 245 246 246 248 249 250 250 250 251 251 252 253 255 254
265 256 257 268 283 279 253 249 256 260 263 257 249 250 246 241 238 237 239 239 242 251 261 263 262 262 260 259 259 262 268 273 276 276 274 275 277 278 277 275 271 267 263 259 256 255 255 257 256 254 250 246 243 242 241 240 238 237 237 238 240 241 240 242 244 245 246 244 243 243 243 245 247 247 248 249 250 250 250 250 251 249 249 250 253
271 264 266 289 317 292 273 276 268 258 254 249 246 245 242 240 239 238 240 244 251 260 262 260 259 258 256 256 259 263 268 273 276 277 277 278 279 279 278 275 273 270 265 259 256 255 254 255 255 252 249 245 241 240 239 238 236 234 234 235 238 241 240 240 242 244 247 244 241 243 243 245 248 248 249 249 249 250 250 250 251 250 247 246 248
276 269 268 284 306 301 285 279 268 258 253 248 245 243 243 243 242 243 246 251 257 258 257 256 256 255 256 259 263 267 271 274 277 279 281 282 281 280 277 272 270 268 264 259 257 256 255 254 253 252 249 246 242 238 237 237 236 233 231 231 234 239 241 241 242 244 248 244 238 240 243 244 246 248 249 249 249 249 249 250 250 251 249 246 246
270 262 264 272 288 294 280 274 265 256 253 250 247 243 241 240 243 246 248 251 253 253 254 254 255 256 258 262 266 270 273 278 279 276 274 275 275 276 276 273 270 267 263 260 258 258 257 254 252 252 248 245 241 236 234 235 236 235 233 232 232 237 240 242 243 244 248 247 240 240 241 242 243 245 246 248 248 248 249 249 251 252 251 249 248
254 250 259 264 271 272 267 274 264 249 247 248 246 242 237 237 240 242 246 250 251 251 252 253 256 258 261 266 269 271 275 279 278 275 274 274 273 272 275 276 272 267 262 258 257 257 255 250 247 245 244 244 243 237 234 234 236 238 238 237 236 237 240 242 243 244 247 249 247 244 244 243 243 244 245 245 246 246 247 248 250 252 252 252 251
250 254 262 261 256 254 254 261 252 237 234 237 239 238 236 234 236 242 248 249 248 249 251 255 260 262 266 270 270 271 274 277 277 279 281 282 281 281 282 280 273 268 262 256 252 253 253 250 245 240 242 245 247 242 238 236 236 238 238 239 239 239 240 242 243 244 245 247 248 247 246 246 246 245 245 246 246 245 245 246 248 251 252 253 253
264 267 268 263 255 253 252 251 240 227 224 228 230 229 228 231 238 244 245 244 247 252 258 263 267 270 272 272 271 273 275 277 277 280 284 285 285 287 284 279 273 268 263 258 253 252 252 251 247 242 241 245 247 245 243 240 237 236 237 240 241 241 242 243 245 245 245 245 245 245 245 246 246 245 243 245 248 248 247 245 246 248 251 252 253
279 271 263 258 256 257 260 256 242 230 222 221 220 220 224 233 237 238 239 244 252 260 267 271 272 275 276 277 278 279 279 277 277 280 282 284 284 282 280 277 275 270 265 260 255 254 253 251 248 245 243 243 244 245 245 245 241 238 239 241 243 244 245 247 248 248 248 246 245 246 245 245 247 248 246 244 246 250 250 248 247 247 250 252 253
298 288 262 252 250 255 259 248 229 219 218 217 216 218 224 228 229 233 240 250 259 267 272 276 279 281 284 286 285 282 279 274 272 274 276 278 278 278 278 277 276 272 268 263 257 254 253 250 246 243 243 243 244 245 246 248 247 246 245 244 244 245 246 248 249 250 251 250 247 246 247 247 247 250 250 248 246 248 249 249 249 249 250 251 252
303 307 277 256 251 253 252 236 212 201 208 212 213 216 218 220 225 234 246 256 265 272 276 280 284 286 287 287 286 282 277 273 270 268 268 269 271 274 276 277 276 273 270 265 259 256 253 248 243 242 243 245 247 248 249 249 250 251 251 250 246 245 246 248 248 248 250 250 248 247 249 251 250 250 251 251 250 249 249 249 250 250 251 251 252
278 297 277 254 244 240 238 221 197 189 197 202 205 208 212 219 228 239 252 263 271 276 280 282 282 282 283 282 282 279 274 271 269 268 267 266 266 267 269 272 274 273 270 266 261 257 254 247 243 243 245 247 248 249 251 252 253 254 255 255 252 249 247 248 248 248 248 248 247 246 248 251 252 252 252 252 252 251 250 250 250 251 252 251 252
257 274 269 246 224 217 222 209 188 187 195 201 204 207 213 222 234 245 255 264 272 278 279 277 277 277 279 281 281 279 276 272 268 268 268 268 268 267 266 266 267 268 267 266 264 260 256 252 248 246 247 250 250 251 254 256 256 257 257 259 259 256 252 250 251 252 253 253 250 248 248 249 250 251 252 253 253 253 253 252 251 251 251 251 250
256 266 271 246 213 202 204 203 196 198 204 210 214 217 221 228 237 245 252 259 265 270 271 271 272 274 276 279 281 281 280 278 273 270 268 269 270 270 268 266 264 264 264 265 264 261 258 256 254 250 250 252 255 257 257 258 257 257 257 258 260 261 259 256 255 255 257 258 256 254 252 250 251 251 253 254 254 254 255 254 252 251 250 250 250
255 264 267 238 213 200 194 199 203 210 219 224 228 229 230 232 236 241 249 256 260 261 265 270 273 277 281 283 283 281 279 279 277 274 271 269 268 269 269 268 266 264 264 265 264 261 258 256 255 253 253 255 260 262 262 263 260 257 256 257 258 260 259 259 258 258 259 259 258 257 256 255 254 255 255 255 256 255 254 254 253 252 251 251 250
248 259 257 224 209 202 195 199 206 214 222 226 228 229 229 230 233 240 248 252 257 260 265 273 278 282 286 287 285 284 281 280 280 278 276 272 268 267 267 268 269 267 266 265 265 262 259 256 254 255 256 259 264 266 265 267 265 261 259 257 257 257 257 258 258 259 260 260 258 256 256 257 257 258 258 258 258 257 255 256 256 254 253 252 250
239 243 241 213 205 205 202 203 207 212 219 223 225 224 223 228 234 242 247 251 256 263 268 274 280 282 284 286 283 282 282 280 280 279 278 276 273 269 267 268 268 268 267 265 264 263 260 258 256 256 258 261 265 267 266 266 267 266 263 261 259 258 259 259 258 258 259 260 259 256 255 256 258 260 261 261 262 261 259 258 256 255 254 253 253
237 231 226 212 208 214 218 219 218 218 224 228 225 221 221 228 237 245 251 258 265 270 273 275 278 281 282 281 280 277 278 278 279 280 279 277 276 274 272 270 269 268 268 265 264 263 262 261 260 259 261 263 266 268 267 266 267 268 267 265 264 262 261 261 260 260 259 259 259 258 258 258 261 264 265 265 265 267 269 265 256 255 257 256 255
236 230 224 220 221 225 227 228 226 221 223 227 223 218 221 229 239 250 258 264 273 278 280 282 281 282 282 281 283 281 278 278 280 283 283 281 278 276 274 271 270 268 267 267 265 264 263 263 263 263 264 266 267 268 268 267 266 267 267 267 267 266 265 264 263 263 261 259 258 258 259 260 263 264 265 267 267 269 272 270 261 258 260 258 253
236 234 231 228 228 228 226 225 219 209 212 220 219 218 224 232 242 254 262 266 275 281 282 283 281 279 280 283 286 285 283 280 280 283 285 283 279 276 273 271 269 267 266 265 264 263 263 263 264 265 266 268 269 270 271 270 269 267 267 267 267 267 267 266 266 265 263 263 262 261 260 260 262 263 265 265 266 268 270 270 267 263 262 259 253
237 235 233 232 231 230 227 222 214 208 225 233 230 230 231 236 246 253 259 263 268 274 276 276 275 275 280 285 286 284 282 278 274 276 279 282 280 275 272 270 269 267 265 263 263 262 262 262 263 264 266 267 269 270 271 272 272 271 270 269 268 267 267 267 267 266 265 266 266 266 263 262 262 263 264 263 263 265 267 268 266 263 262 262 260
240 239 239 241 241 240 237 229 221 225 244 244 238 239 237 235 243 248 253 257 262 266 269 272 274 276 280 283 284 281 279 276 271 271 274 277 277 274 270 268 267 267 265 263 262 261 261 261 262 262 264 265 267 268 270 270 271 272 271 271 269 268 268 269 270 269 270 270 269 268 266 264 263 262 263 264 264 265 266 266 265 264 264 264 263
245 248 250 252 253 252 248 240 228 224 228 235 239 242 238 233 236 244 252 256 261 264 266 272 276 279 281 283 285 278 271 270 267 266 270 274 275 273 270 266 264 265 266 265 263 262 261 260 261 261 262 263 264 266 267 268 269 269 270 269 268 267 268 270 271 271 271 271 270 270 269 268 266 264 263 263 265 264 264 266 266 266 266 267 267
244 244 246 250 258 262 259 256 246 232 227 231 243 246 241 237 236 241 250 255 258 261 265 271 274 277 282 288 289 276 264 264 265 264 267 272 275 274 271 268 264 263 264 265 264 263 262 261 260 260 260 261 262 263 265 266 266 266 266 266 266 265 265 267 269 270 270 270 270 270 272 271 270 268 266 265 265 264 262 262 264 265 265 266 268
246 249 250 252 259 260 255 256 257 243 231 232 245 253 245 240 241 244 250 252 252 253 257 264 268 272 285 298 296 276 262 264 264 263 263 266 269 270 269 268 265 263 262 263 264 264 263 261 260 258 258 258 259 260 262 263 264 265 265 265 264 264 263 264 266 268 268 268 268 269 270 271 271 271 270 269 268 267 264 261 261 262 262 263 265
Height
5859 5859 5859 5860 5860 5860 5860 5860 5860 5860 5861 5861 5862 5862 5862 5863 5863 5862 5862 5862 5862 5861 5861 5860 5859 5858 5857 5857 5857 5857 5856 5856 5855 5855 5855 5855 5855 5855 5855 5854 5854 5853 5853 5852 5852 5852 5853 5853 5852 5852 5852 5852 5852 5852 5852 5852 5852 5852 5853 5853 5853 5853 5853 5853 5854 5854 5854 5855 5855 5856 5856 5856 5857 5857 5857 5858 5858 5858 5859 5859 5860 5860 5861 5861 5861
5857 5857 5857 5858 5858 5858 5859 5859 5859 5859 5859 5860 5860 5861 5861 5861 5861 5860 5860 5860 5860 5860 5859 5858 5858 5857 5856 5856 5856 5856 5856 5855 5855 5855 5855 5854 5854 5854 5854 5853 5853 5853 5852 5852 5851 5852 5852 5852 5851 5851 5851 5851 5851 5851 5851 5851 5852 5852 5852 5852 5853 5853 5853 5853 5853 5854 5854 5854 5855 5855 5856 5856 5856 5857 5857 5857 5858 5858 5858 5859 5859 5860 5860 5861 5861
5856 5856 5856 5856 5856 5857 5857 5857 5857 5857 5858 5858 5858 5859 5860 5860 5859 5859 5858 5858 5858 5858 5858 5857 5857 5856 5855 5855 5855 5855 5855 5854 5854 5854 5854 5854 5853 5852 5852 5852 5852 5852 5851 5851 5851 5851 5851 5851 5851 5850 5850 5851 5851 5850 5851 5851 5851 5851 5852 5852 5852 5852 5852 5852 5853 5853 5853 5854 5854 5855 5855 5855 5856 5856 5856 5857 5857 5858 5858 5859 5859 5860 5860 5861 5861
5854 5854 5854 5854 5855 5855 5855 5855 5855 5856 5856 5856 5857 5857 5858 5858 5858 5857 5856 5856 5856 5856 5856 5856 5855 5855 5854 5854 5853 5854 5854 5853 5853 5853 5853 5853 5852 5852 5851 5851 5851 5851 5850 5850 5850 5850 5850 5850 5850 5849 5850 5850 5850 5850 5850 5850 5851 5851 5851 5851 5852 5852 5852 5852 5852 5853 5853 5853 5854 5854 5855 5855 5855 5856 5856 5856 5857 5857 5858 5858 5859 5859 5860 5860 5861
5853 5853 5853 5853 5853 5853 5852 5853 5853 5854 5854 5854 5855 5855 5855 5856 5856 5855 5855 5855 5854 5854 5854 5854 5853 5853 5853 5852 5852 5852 5852 5852 5852 5852 5852 5852 5852 5851 5850 5850 5850 5850 5850 5849 5849 5849 5849 5849 5849 5849 5849 5849 5849 5849 5849 5850 5850 5851 5851 5851 5851 5851 5851 5852 5852 5852 5852 5853 5853 5854 5854 5855 5855 5855 5856 5856 5856 5857 5857 5858 5858 5859 5860 5860 5860
5850 5851 5851 5851 5850 5850 5850 5850 5851 5852 5852 5852 5853 5853 5853 5853 5853 5853 5853 5853 5853 5852 5852 5852 5852 5851 5851 5851 5851 5851 5851 5851 5851 5851 5851 5850 5850 5850 5849 5849 5849 5849 5849 5849 5849 5848 5848 5848 5848 5848 5848 5848 5848 5848 5849 5849 5849 5850 5850 5850 5850 5850 5851 5851 5851 5851 5852 5852 5853 5853 5854 5854 5855 5855 5855 5856 5856 5857 5857 5858 5858 5859 5859 5860 5860
5848 5848 5849 5848 5848 5848 5848 5848 5849 5850 5850 5851 5851 5851 5850 5850 5850 5851 5851 5851 5851 5850 5850 5850 5850 5850 5850 5850 5850 5850 5850 5849 5849 5849 5849 5849 5848 5848 5848 5848 5848 5848 5848 5848 5848 5847 5847 5847 5847 5847 5847 5847 5847 5848 5848 5848 5848 5849 5850 5850 5850 5850 5850 5850 5851 5851 5851 5852 5852 5853 5853 5854 5854 5855 5855 5855 5856 5856 5857 5857 5858 5859 5859 5860 5860
5845 5846 5846 5846 5846 5846 5846 5846 5847 5848 5848 5848 5848 5848 5848 5848 5848 5848 5849 5849 5848 5848 5848 5848 5848 5848 5848 5848 5849 5849 5848 5848 5848 5848 5848 5847 5847 5847 5847 5847 5847 5847 5847 5847 5847 5846 5846 5846 5846 5846 5846 5846 5847 5847 5847 5847 5848 5848 5849 5849 5849 5849 5849 5850 5850 5851 5851 5851 5852 5852 5853 5853 5853 5854 5855 5855 5855 5856 5856 5857 5858 5858 5859 5860 5860
5843 5843 5843 5843 5843 5843 5844 5844 5844 5845 5846 5846 5846 5846 5845 5845 5845 5846 5846 5846 5846 5846 5846 5846 5846 5846 5846 5847 5847 5847 5847 5846 5847 5846 5846 5846 5846 5846 5846 5846 5846 5846 5846 5846 5845 5845 5845 5845 5845 5845 5845 5845 5846 5846 5846 5846 5847 5847 5848 5849 5849 5848 5849 5849 5850 5850 5850 5851 5851 5852 5852 5853 5853 5854 5854 5855 5855 5855 5856 5857 5857 5858 5859 5859 5860
5840 5840 5840 5840 5841 5841 5841 5842 5842 5842 5843 5843 5843 5843 5843 5842 5843 5843 5843 5843 5844 5844 5844 5844 5844 5844 5845 5845 5845 5845 5845 5845 5845 5845 5845 5845 5845 5845 5844 5845 5845 5845 5844 5844 5844 5844 5844 5844 5844 5844 5844 5844 5844 5845 5845 5845 5846 5846 5847 5848 5848 5848 5848 5849 5849 5850 5850 5850 5850 5851 5852 5852 5853 5853 5854 5854 5855 5855 5855 5856 5857 5858 5858 5859 5860
5838 5838 5838 5838 5838 5839 5839 5839 5839 5839 5840 5840 5840 5840 5840 5840 5841 5841 5841 5841 5841 5842 5842 5842 5842 5842 5843 5843 5843 5843 5843 5843 5843 5843 5843 5843 5844 5843 5843 5843 5843 5843 5843 5843 5842 5842 5842 5842 5842 5842 5842 5843 5843 5844 5845 5845 5844 5845 5847 5847 5847 5848 5848 5848 5849 5849 5850 5850 5850 5850 5851 5852 5853 5853 5854 5854 5855 5855 5855 5856 5856 5857 5858 5858 5859
5836 5836 5836 5836 5836 5836 5836 5836 5836 5836 5837 5837 5837 5838 5837 5838 5838 5839 5839 5839 5839 5839 5840 5840 5840 5840 5841 5841 5841 5841 5841 5841 5841 5841 5842 5842 5842 5842 5842 5842 5842 5842 5841 5841 5841 5841 5841 5841 5841 5841 5841 5842 5843 5843 5844 5844 5843 5844 5846 5847 5847 5847 5847 5847 5848 5849 5849 5849 5849 5850 5850 5851 5852 5853 5853 5854 5854 5855 5855 5855 5856 5857 5857 5858 5858
5833 5833 5834 5834 5834 5833 5833 5833 5833 5833 5833 5833 5834 5834 5835 5835 5836 5836 5837 5836 5836 5837 5838 5838 5838 5838 5839 5839 5839 5839 5839 5839 5840 5840 5840 5840 5840 5840 5840 5840 5840 5840 5840 5840 5840 5839 5839 5839 5839 5839 5840 5841 5842 5842 5843 5842 5842 5842 5844 5846 5846 5846 5846 5847 5847 5848 5849 5849 5849 5849 5850 5851 5851 5852 5853 5853 5854 5854 5855 5855 5856 5856 5857 5857 5858
5831 5831 5831 5831 5831 5831 5831 5830 5830 5831 5830 5830 5831 5832 5832 5833 5833 5833 5834 5833 5834 5835 5836 5835 5835 5836 5837 5837 5838 5838 5838 5838 5838 5839 5839 5839 5839 5839 5838 5838 5838 5838 5838 5838 5838 5838 5837 5837 5838 5838 5839 5840 5840 5841 5841 5841 5841 5841 5843 5844 5845 5845 5846 5846 5847 5847 5848 5848 5848 5849 5849 5850 5851 5851 5852 5852 5853 5854 5854 5855 5855 5856 5856 5857 5857
5829 5829 5829 5829 5828 5828 5828 5827 5827 5828 5829 5828 5828 5829 5830 5830 5831 5831 5831 5832 5833 5834 5834 5833 5833 5834 5835 5835 5836 5836 5836 5837 5837 5837 5837 5837 5837 5837 5836 5836 5836 5836 5836 5836 5836 5836 5836 5836 5836 5837 5838 5838 5839 5840 5840 5840 5840 5839 5841 5842 5844 5844 5845 5845 5846 5846 5847 5847 5848 5848 5849 5849 5850 5851 5851 5852 5852 5853 5854 5854 5855 5855 5856 5856 5857
5826 5826 5827 5826 5826 5825 5824 5824 5824 5824 5825 5825 5825 5826 5827 5828 5828 5829 5829 5831 5831 5832 5831 5831 5831 5832 5833 5834 5834 5835 5835 5835 5835 5835 5835 5835 5835 5835 5835 5834 5834 5834 5834 5834 5834 5834 5834 5834 5835 5835 5836 5837 5838 5838 5839 5839 5839 5838 5839 5841 5842 5843 5843 5844 5844 5845 5846 5846 5847 5847 5848 5848 5849 5850 5850 5851 5851 5852 5853 5854 5854 5855 5855 5856 5856
5824 5825 5824 5823 5822 5821 5820 5821 5820 5820 5821 5822 5822 5823 5824 5825 5825 5826 5827 5828 5828 5829 5828 5829 5830 5831 5831 5832 5832 5833 5833 5833 5833 5833 5833 5833 5833 5833 5833 5832 5832 5831 5831 5831 5831 5832 5832 5832 5833 5834 5834 5835 5836 5837 5837 5837 5838 5837 5838 5839 5840 5841 5842 5843 5843 5844 5844 5845 5846 5846 5847 5847 5848 5849 5849 5850 5851 5851 5852 5853 5854 5854 5855 5855 5856
5822 5822 5821 5820 5819 5817 5816 5817 5817 5817 5818 5818 5819 5820 5821 5822 5822 5823 5824 5825 5826 5827 5827 5827 5828 5829 5830 5830 5831 5831 5831 5831 5831 5831 5831 5831 5831 5830 5830 5830 5829 5829 5829 5828 5829 5830 5830 5831 5831 5832 5832 5833 5834 5835 5836 5836 5836 5836 5836 5837 5839 5839 5840 5841 5841 5842 5843 5843 5844 5845 5846 5846 5847 5848 5848 5849 5850 5850 5851 5852 5853 5854 5854 5855 5855
5819 5818 5818 5817 5815 5814 5814 5814 5815 5816 5816 5815 5816 5817 5818 5819 5820 5820 5821 5823 5824 5825 5825 5825 5826 5827 5828 5829 5829 5829 5829 5828 5828 5829 5829 5828 5828 5828 5828 5827 5827 5826 5826 5826 5827 5827 5828 5829 5829 5829 5830 5831 5833 5834 5834 5835 5835 5835 5835 5836 5837 5838 5839 5839 5840 5840 5841 5841 5842 5844 5845 5845 5846 5846 5847 5848 5849 5849 5850 5851 5852 5853 5853 5854 5854
5814 5814 5814 5813 5812 5812 5812 5812 5812 5813 5813 5813 5814 5816 5817 5818 5819 5819 5821 5822 5822 5822 5823 5824 5825 5825 5826 5826 5826 5826 5826 5826 5826 5826 5826 5826 5826 5825 5825 5825 5825 5824 5824 5824 5824 5825 5826 5826 5827 5827 5828 5829 5831 5832 5833 5833 5834 5834 5834 5834 5836 5837 5837 5838 5838 5839 5839 5840 5841 5842 5843 5844 5844 5845 5846 5847 5848 5848 5849 5850 5851 5852 5853 5853 5854
5811 5811 5810 5809 5809 5809 5810 5810 5810 5810 5811 5812 5813 5815 5816 5817 5817 5818 5819 5819 5820 5820 5821 5822 5822 5823 5823 5823 5823 5823 5823 5823 5823 5823 5823 5823 5823 5823 5823 5823 5823 5823 5822 5822 5822 5823 5823 5824 5825 5825 5826 5827 5828 5830 5831 5832 5832 5833 5833 5833 5834 5835 5835 5836 5837 5837 5838 5838 5839 5840 5841 5842 5843 5844 5844 5845 5846 5847 5848 5849 5850 5851 5851 5852 5853
5809 5809 5808 5807 5806 5806 5807 5807 5807 5808 5808 5810 5812 5814 5814 5815 5816 5816 5817 5817 5818 5819 5820 5821 5821 5820 5820 5820 5820 5821 5821 5821 5821 5821 5821 5821 5821 5821 5821 5821 5821 5821 5821 5820 5820 5820 5821 5822 5823 5824 5825 5826 5826 5828 5829 5830 5831 5831 5831 5831 5832 5833 5834 5834 5835 5835 5836 5837 5837 5838 5839 5840 5841 5842 5843 5844 5845 5845 5847 5847 5848 5849 5850 5851 5852
5806 5805 5804 5803 5803 5803 5804 5805 5805 5806 5808 5808 5810 5812 5812 5813 5814 5814 5815 5816 5816 5817 5818 5819 5819 5819 5819 5819 5819 5819 5819 5819 5819 5819 5819 5819 5819 5819 5819 5820 5820 5820 5819 5819 5818 5818 5819 5820 5821 5822 5823 5824 5825 5826 5827 5828 5829 5829 5829 5830 5830 5830 5831 5832 5833 5834 5834 5835 5835 5836 5837 5838 5839 5840 5842 5842 5843 5844 5845 5846 5847 5848 5849 5850 5850
5803 5802 5801 5799 5799 5801 5803 5803 5803 5805 5807 5808 5809 5810 5810 5811 5811 5812 5813 5814 5815 5816 5817 5817 5817 5817 5817 5817 5817 5818 5818 5817 5818 5818 5817 5817 5817 5817 5818 5818 5818 5818 5817 5817 5817 5817 5817 5818 5819 5820 5821 5822 5823 5824 5825 5826 5827 5828 5828 5828 5828 5828 5829 5830 5831 5832 5832 5833 5833 5834 5835 5836 5837 5838 5839 5841 5841 5842 5843 5844 5845 5846 5847 5848 5849
5801 5799 5799 5798 5797 5799 5802 5802 5803 5804 5806 5806 5807 5807 5808 5808 5809 5810 5811 5812 5813 5814 5815 5815 5816 5816 5816 5816 5816 5816 5816 5816 5816 5816 5815 5815 5815 5815 5815 5815 5815 5815 5815 5815 5815 5815 5816 5816 5817 5818 5819 5820 5821 5822 5823 5825 5825 5826 5826 5826 5826 5826 5826 5827 5828 5829 5830 5831 5831 5832 5833 5834 5835 5835 5837 5838 5840 5841 5841 5842 5843 5844 5845 5846 5847
5800 5797 5798 5798 5797 5799 5801 5802 5803 5803 5803 5804 5804 5805 5805 5806 5806 5808 5809 5810 5812 5812 5813 5814 5814 5814 5814 5814 5815 5815 5814 5814 5814 5814 5813 5812 5812 5813 5813 5813 5813 5813 5813 5813 5813 5813 5814 5814 5814 5815 5816 5817 5819 5820 5821 5822 5823 5824 5824 5824 5824 5824 5824 5825 5826 5827 5828 5829 5829 5831 5831 5832 5832 5833 5834 5836 5837 5839 5840 5841 5842 5843 5844 5845 5846
5798 5795 5796 5796 5796 5798 5800 5801 5802 5802 5802 5802 5802 5802 5803 5803 5804 5806 5807 5808 5809 5811 5811 5812 5812 5812 5813 5813 5813 5813 5812 5812 5812 5811 5811 5810 5810 5811 5811 5811 5811 5811 5811 5811 5811 5811 5811 5811 5812 5812 5813 5815 5816 5817 5819 5820 5821 5822 5822 5822 5822 5822 5823 5823 5824 5824 5825 5826 5827 5828 5829 5830 5830 5831 5832 5834 5835 5836 5838 5839 5840 5841 5842 5843 5844
5794 5793 5793 5793 5794 5796 5797 5799 5800 5800 5800 5800 5800 5800 5801 5801 5802 5803 5805 5806 5808 5809 5810 5810 5810 5810 5811 5811 5811 5811 5810 5810 5809 5809 5808 5808 5809 5809 5809 5809 5809 5809 5810 5810 5809 5809 5809 5809 5809 5810 5811 5812 5814 5815 5816 5817 5818 5819 5820 5820 5820 5820 5820 5821 5821 5822 5823 5824 5825 5826 5827 5828 5828 5829 5830 5831 5833 5834 5835 5836 5837 5838 5839 5840 5841
5792 5792 5792 5792 5793 5794 5795 5796 5797 5797 5798 5798 5798 5798 5799 5800 5801 5802 5804 5805 5806 5807 5807 5808 5808 5808 5808 5809 5808 5808 5808 5808 5808 5807 5807 5807 5807 5807 5807 5807 5807 5808 5808 5808 5807 5807 5807 5807 5807 5808 5809 5810 5811 5813 5814 5815 5816 5817 5817 5818 5818 5817 5818 5819 5819 5820 5821 5821 5822 5824 5825 5826 5827 5827 5828 5829 5830 5832 5833 5834 5835 5836 5837 5838 5839
5792 5791 5791 5791 5792 5792 5793 5794 5794 5795 5795 5796 5796 5797 5798 5799 5800 5802 5803 5804 5805 5805 5805 5806 5806 5806 5806 5807 5806 5806 5806 5806 5807 5806 5805 5805 5805 5805 5805 5805 5805 5805 5806 5806 5806 5806 5806 5806 5806 5806 5807 5808 5809 5810 5811 5812 5813 5814 5815 5815 5815 5815 5815 5816 5817 5818 5818 5819 5820 5822 5823 5824 5825 5825 5826 5827 5828 5829 5830 5831 5833 5834 5835 5836 5837
5791 5790 5789 5790 5790 5791 5792 5792 5793 5793 5794 5795 5795 5796 5797 5798 5800 5801 5802 5802 5803 5803 5804 5804 5804 5805 5805 5804 5804 5804 5804 5805 5805 5804 5802 5802 5802 5802 5803 5803 5803 5803 5804 5804 5805 5805 5805 5805 5805 5805 5806 5806 5807 5808 5809 5809 5810 5811 5812 5813 5813 5813 5813 5814 5814 5815 5816 5817 5818 5819 5820 5822 5823 5823 5824 5825 5826 5827 5828 5829 5830 5831 5832 5833 5834
5789 5788 5788 5788 5788 5789 5790 5791 5792 5792 5793 5794 5795 5796 5797 5798 5799 5799 5800 5800 5801 5801 5802 5802 5803 5802 5802 5802 5802 5802 5803 5804 5803 5801 5800 5800 5800 5800 5801 5801 5801 5801 5802 5803 5803 5803 5804 5804 5804 5804 5804 5805 5805 5806 5807 5807 5808 5809 5810 5811 5811 5811 5811 5811 5812 5813 5814 5815 5816 5817 5818 5819 5820 5821 5821 5822 5823 5824 5825 5827 5828 5829 5830 5831 5832
5787 5786 5786 5786 5787 5788 5789 5790 5790 5791 5791 5792 5794 5795 5796 5796 5797 5797 5798 5798 5799 5800 5800 5801 5800 5800 5800 5800 5800 5800 5801 5802 5800 5799 5799 5798 5798 5798 5799 5799 5799 5799 5800 5801 5801 5802 5802 5802 5803 5803 5803 5803 5804 5804 5804 5806 5807 5808 5808 5809 5809 5809 5810 5810 5810 5811 5811 5812 5814 5815 5816 5817 5818 5819 5819 5820 5821 5821 5823 5824 5825 5826 5827 5828 5829
5786 5785 5785 5785 5786 5787 5788 5789 5789 5789 5790 5791 5792 5793 5794 5794 5795 5795 5796 5797 5797 5798 5798 5799 5799 5798 5798 5798 5798 5799 5799 5799 5798 5797 5797 5797 5796 5797 5797 5798 5798 5798 5798 5799 5800 5800 5800 5801 5802 5802 5802 5802 5802 5802 5803 5804 5805 5806 5807 5807 5808 5808 5808 5808 5808 5809 5809 5810 5811 5812 5813 5815 5816 5817 5817 5818 5818 5819 5820 5821 5823 5823 5825 5826 5827
5785 5784 5784 5784 5784 5785 5786 5787 5788 5788 5789 5790 5790 5791 5792 5792 5793 5793 5794 5795 5796 5796 5797 5797 5797 5796 5796 5796 5797 5797 5797 5797 5796 5796 5796 5795 5795 5795 5796 5796 5796 5796 5797 5797 5798 5799 5799 5800 5801 5801 5801 5801 5801 5801 5802 5802 5803 5804 5805 5805 5806 5806 5806 5807 5807 5807 5807 5808 5809 5810 5811 5812 5813 5814 5815 5815 5816 5817 5818 5819 5820 5821 5822 5823 5824
5784 5783 5783 5783 5783 5784 5785 5786 5786 5787 5787 5788 5789 5790 5790 5791 5792 5792 5793 5794 5794 5795 5795 5795 5795 5795 5795 5795 5795 5795 5795 5796 5795 5795 5795 5794 5794 5794 5795 5795 5795 5795 5795 5796 5796 5797 5798 5799 5799 5800 5800 5800 5800 5800 5800 5801 5801 5802 5803 5804 5804 5805 5805 5805 5805 5805 5806 5806 5807 5807 5809 5810 5811 5812 5813 5813 5814 5815 5815 5816 5817 5819 5820 5821 5822
5782 5782 5782 5782 5782 5783 5784 5784 5785 5785 5786 5787 5788 5788 5789 5790 5790 5791 5791 5792 5793 5793 5794 5794 5793 5793 5793 5793 5793 5794 5794 5794 5794 5794 5794 5794 5794 5794 5793 5793 5793 5794 5794 5795 5795 5795 5796 5797 5797 5798 5798 5798 5798 5799 5799 5799 5799 5800 5801 5801 5802 5803 5803 5803 5804 5804 5804 5804 5805 5805 5806 5807 5809 5810 5811 5811 5812 5813 5813 5814 5815 5816 5817 5819 5819
5781 5781 5781 5781 5781 5782 5783 5783 5783 5784 5784 5785 5786 5787 5787 5788 5788 5789 5790 5790 5791 5791 5791 5792 5792 5792 5792 5792 5792 5792 5792 5792 5792 5792 5793 5792 5792 5792 5792 5792 5792 5793 5793 5794 5794 5794 5794 5795 5795 5796 5796 5796 5796 5797 5798 5798 5798 5798 5799 5800 5800 5801 5802 5802 5802 5802 5803 5803 5803 5804 5805 5805 5806 5807 5808 5809 5809 5810 5811 5812 5813 5814 5815 5816 5816
5780 5779 5779 5779 5780 5781 5782 5782 5782 5783 5783 5784 5785 5785 5785 5786 5786 5787 5788 5788 5789 5789 5790 5790 5790 5790 5790 5790 5791 5790 5790 5791 5791 5791 5791 5791 5791 5791 5791 5791 5791 5792 5792 5792 5792 5792 5792 5793 5793 5794 5793 5793 5795 5797 5797 5797 5797 5798 5798 5798 5799 5799 5800 5801 5801 5801 5801 5801 5802 5802 5803 5803 5804 5805 5806 5806 5807 5807 5808 5809 5810 5811 5811 5812 5813
5778 5778 5777 5777 5778 5779 5779 5780 5781 5782 5783 5783 5784 5783 5783 5783 5784 5785 5786 5786 5787 5788 5788 5789 5789 5789 5789 5789 5789 5789 5789 5789 5789 5789 5789 5789 5789 5789 5789 5790 5790 5790 5790 5790 5790 5790 5791 5791 5791 5792 5791 5791 5794 5797 5797 5796 5796 5797 5797 5797 5797 5798 5798 5799 5799 5799 5799 5799 5800 5800 5801 5801 5802 5802 5803 5804 5804 5805 5805 5806 5807 5807 5808 5809 5809
5776 5776 5775 5775 5777 5777 5777 5778 5779 5780 5781 5782 5782 5782 5782 5782 5782 5783 5784 5785 5786 5786 5787 5787 5787 5787 5787 5787 5787 5787 5787 5787 5787 5787 5788 5788 5788 5788 5788 5788 5788 5788 5788 5788 5788 5788 5789 5789 5789 5789 5789 5789 5792 5795 5796 5795 5795 5795 5795 5796 5796 5796 5796 5797 5797 5797 5798 5798 5798 5798 5799 5799 5800 5800 5801 5801 5802 5802 5802 5802 5803 5804 5804 5805 5806
5774 5774 5773 5773 5775 5775 5775 5776 5777 5779 5780 5780 5780 5780 5780 5780 5781 5782 5782 5783 5784 5785 5785 5786 5786 5786 5786 5786 5786 5785 5785 5785 5785 5785 5786 5786 5786 5786 5786 5787 5787 5787 5787 5786 5786 5787 5787 5788 5788 5788 5787 5787 5790 5793 5793 5793 5793 5793 5794 5794 5794 5795 5795 5795 5795 5796 5796 5796 5796 5796 5797 5797 5797 5798 5799 5799 5799 5800 5800 5800 5800 5801 5801 5802 5802
5772 5772 5771 5771 5773 5774 5774 5775 5775 5776 5777 5778 5778 5778 5778 5779 5779 5780 5781 5781 5782 5783 5784 5784 5784 5784 5784 5784 5784 5784 5784 5784 5784 5784 5784 5784 5784 5784 5785 5785 5785 5785 5785 5785 5785 5785 5786 5786 5786 5786 5786 5786 5787 5789 5791 5791 5791 5791 5792 5792 5792 5793 5793 5793 5793 5794 5794 5794 5794 5794 5795 5795 5796 5796 5797 5797 5797 5797 5797 5797 5797 5797 5798 5799 5799
5769 5769 5769 5769 5770 5771 5772 5772 5773 5774 5774 5775 5776 5776 5777 5777 5778 5778 5779 5780 5780 5781 5782 5782 5783 5783 5783 5783 5783 5783 5782 5782 5782 5782 5782 5782 5782 5782 5782 5782 5783 5783 5783 5783 5784 5784 5784 5784 5784 5784 5784 5784 5785 5786 5788 5789 5789 5789 5790 5790 5790 5791 5791 5791 5791 5791 5792 5792 5792 5792 5793 5793 5794 5794 5795 5795 5795 5795 5795 5795 5795 5795 5795 5795 5796
5765 5765 5765 5766 5767 5768 5768 5767 5766 5768 5770 5772 5774 5775 5776 5776 5776 5777 5778 5778 5779 5780 5781 5781 5781 5781 5781 5781 5781 5781 5781 5780 5780 5780 5780 5780 5780 5780 5780 5780 5780 5781 5781 5781 5782 5782 5783 5783 5783 5783 5783 5783 5783 5784 5785 5786 5787 5787 5787 5788 5788 5788 5788 5788 5789 5789 5789 5789 5790 5790 5790 5791 5791 5792 5792 5792 5792 5792 5793 5793 5792 5792 5792 5792 5793
5762 5762 5763 5765 5767 5769 5770 5768 5765 5765 5767 5770 5772 5773 5774 5774 5775 5776 5776 5777 5778 5779 5780 5780 5780 5780 5780 5779 5779 5779 5779 5779 5778 5778 5778 5778 5778 5778 5778 5778 5779 5779 5779 5779 5780 5780 5780 5780 5780 5780 5780 5781 5781 5781 5782 5783 5784 5785 5785 5785 5786 5786 5785 5786 5786 5786 5787 5787 5787 5788 5788 5788 5788 5789 5789 5789 5789 5790 5790 5791 5791 5791 5790 5790 5790
5760 5761 5762 5764 5766 5769 5771 5770 5769 5769 5770 5771 5772 5773 5773 5774 5774 5775 5775 5776 5777 5778 5778 5778 5779 5778 5778 5778 5777 5777 5777 5776 5776 5776 5776 5777 5777 5777 5777 5777 5777 5777 5777 5777 5778 5778 5778 5778 5778 5778 5778 5778 5778 5779 5779 5780 5781 5781 5782 5783 5783 5783 5783 5783 5784 5784 5784 5785 5785 5785 5785 5786 5785 5785 5785 5786 5786 5787 5788 5788 5788 5788 5788 5788 5788
5759 5761 5762 5764 5765 5766 5767 5768 5769 5770 5770 5770 5771 5771 5771 5772 5772 5773 5773 5774 5775 5776 5777 5777 5777 5777 5776 5776 5776 5775 5775 5775 5774 5774 5775 5775 5775 5775 5775 5775 5775 5775 5775 5776 5775 5776 5776 5776 5776 5776 5776 5776 5776 5776 5777 5777 5777 5778 5779 5779 5780 5780 5780 5780 5781 5781 5782 5782 5782 5782 5783 5783 5783 5782 5783 5783 5784 5784 5785 5785 5786 5786 5786 5786 5786
5759 5761 5762 5763 5762 5763 5765 5767 5767 5766 5765 5766 5768 5769 5769 5769 5769 5770 5772 5773 5774 5775 5775 5775 5775 5774 5774 5774 5774 5773 5773 5773 5772 5772 5772 5772 5773 5773 5773 5773 5773 5773 5773 5774 5774 5774 5774 5774 5774 5774 5774 5774 5774 5774 5774 5774 5775 5775 5775 5776 5776 5777 5777 5777 5778 5778 5779 5779 5780 5780 5780 5780 5780 5780 5781 5781 5781 5782 5783 5783 5783 5784 5783 5783 5783
5758 5760 5760 5759 5759 5761 5763 5764 5764 5763 5763 5764 5765 5766 5767 5766 5767 5768 5770 5771 5772 5773 5773 5773 5772 5772 5771 5771 5771 5771 5770 5770 5771 5770 5770 5770 5771 5771 5772 5772 5772 5772 5772 5772 5772 5772 5772 5772 5772 5772 5772 5772 5772 5772 5772 5772 5772 5773 5773 5773 5774 5774 5774 5775 5775 5775 5776 5777 5777 5777 5777 5778 5777 5777 5778 5779 5779 5779 5780 5780 5780 5780 5781 5781 5781
5756 5756 5756 5755 5757 5758 5759 5759 5759 5760 5761 5762 5763 5764 5764 5764 5765 5767 5768 5769 5770 5770 5770 5770 5770 5769 5769 5769 5769 5768 5768 5769 5769 5769 5769 5769 5769 5769 5769 5770 5770 5770 5770 5770 5770 5770 5770 5770 5770 5770 5770 5770 5770 5770 5770 5770 5770 5771 5771 5771 5771 5772 5772 5772 5773 5773 5773 5774 5774 5774 5774 5775 5775 5775 5776 5776 5776 5776 5777 5777 5777 5777 5777 5778 5778